Preview of NWS' New Version of Forecast
This preview is not operational and should not be used for support decisions.

Regional Weather Roundup (RWR)

Issued by National Weather Service (NWS)

                            
000
ASUS43 KMKX 211221
RWRWI 

WISCONSIN REGIONAL WEATHER ROUNDUP
NATIONAL WEATHER SERVICE MILWAUKEE/SULLIVAN WI
700 AM CDT SAT SEP 21 2019

NOTE: "FAIR" INDICATES FEW OR NO CLOUDS BELOW 12,000 FEET WITH NO
SIGNIFICANT WEATHER AND/OR OBSTRUCTIONS TO VISIBILITY.

WIZ001-002-006>008-014>016-023>028-211300-
NORTHWEST WISCONSIN
  
CITY           SKY/WX    TMP DP  RH WIND       PRES   REMARKS
SUPERIOR ARPT  FOG       52  52 100 CALM      29.83S VSB 1/4          
6HR MIN TEMP:  52; 6HR MAX TEMP:  53;                                

ASHLAND        FAIR      69  67  93 S7        29.86S                  
6HR MIN TEMP:  54; 6HR MAX TEMP:  70;                                

HAYWARD        FAIR      69  66  90 S9        29.88S FOG              
6HR MIN TEMP:  69; 6HR MAX TEMP:  71;                                

SIREN          RAIN      69  67  92 S10       29.84F                  
6HR MIN TEMP:  69; 6HR MAX TEMP:  73; 6HR PCP:  0.07;                

CUMBERLAND     DRIZZLE   68  64  88 SE7       29.87F                  
RICE LAKE      LGT RAIN  69  55  59 SE8       29.88F                  
6HR MIN TEMP:  69; 6HR MAX TEMP:  71;                                

CHETEK         CLOUDY    68  68  98 SE9       29.89S                  
6HR MIN TEMP:  68; 6HR MAX TEMP:  70;                                

LADYSMITH      FAIR      69  69  98 SE7       29.93R                  
6HR MIN TEMP:  68; 6HR MAX TEMP:  71;                                

EAU CLAIRE     MOCLDY    72  66  81 SE8       29.88F                  
6HR MIN TEMP:  71; 6HR MAX TEMP:  74;                                

MENOMONIE      MOCLDY    65  65  98 E9        29.87F FOG              
6HR MIN TEMP:  64; 6HR MAX TEMP:  66;                                

NEW RICHMOND   MOCLDY    69  67  92 SE8       29.84F                  
6HR MIN TEMP:  69; 6HR MAX TEMP:  71;                                

OSCEOLA        CLOUDY    70  70 100 SE8       29.85F                  
6HR MIN TEMP:  69; 6HR MAX TEMP:  72; 6HR PCP:  0.14;                

$$
 
WIZ003>005-009-010-017-018-211300-
NORTH CENTRAL WISCONSIN
  
CITY           SKY/WX    TMP DP  RH WIND       PRES   REMARKS
MANITOWISH WTR CLOUDY    67  67 100 S10       29.94F                  
6HR MIN TEMP:  66; 6HR MAX TEMP:  68;                                

ARBOR VITAE    CLOUDY    69  65  84 S9        29.96F HAZE             
6HR MIN TEMP:  69; 6HR MAX TEMP:  72;                                

WOODRUFF       CLOUDY    69  65  84 S9        29.96F HAZE             
6HR MIN TEMP:  69; 6HR MAX TEMP:  72;                                

RHINELANDER    FAIR      67  64  90 SE7       29.99F FOG              
6HR MIN TEMP:  66; 6HR MAX TEMP:  68;                                

EAGLE RIVER    CLOUDY    67  67 100 SE5       29.98F FOG              
6HR MIN TEMP:  66; 6HR MAX TEMP:  68;                                

LAND O LAKES   MOCLDY    67  66  96 S6        30.00S FOG              
6HR MIN TEMP:  66; 6HR MAX TEMP:  69;                                

PHILLIPS       FAIR      68  68 100 S9        29.92F                  
6HR MIN TEMP:  67; 6HR MAX TEMP:  69;                                

TOMAHAWK       CLOUDY    66  65  96 CALM      29.97F FOG              
6HR MIN TEMP:  65; 6HR MAX TEMP:  66;                                

MEDFORD        MOCLDY    65  65  98 S7        29.95F FOG              
6HR MIN TEMP:  65; 6HR MAX TEMP:  67;                                

MERRILL        CLOUDY    66  66 100 SE5       29.98S FOG              
6HR MIN TEMP:  66; 6HR MAX TEMP:  68;                                

$$
 
WIZ029-030-035-036-043>047-211300-
CENTRAL WISCONSIN
  
CITY           SKY/WX    TMP DP  RH WIND       PRES   REMARKS
WAUSAU         FAIR      66  66 100 SE6       29.96F FOG              
6HR MIN TEMP:  65; 6HR MAX TEMP:  67;                                

MOSINEE        PTCLDY    66  63  88 SE6       29.99F FOG              
MARSHFIELD     FAIR      69  67  93 S10       29.96F FOG              
6HR MIN TEMP:  68; 6HR MAX TEMP:  69;                                

STEVENS POINT  FAIR      64  64 100 SE6       29.99F FOG              
6HR MIN TEMP:  63; 6HR MAX TEMP:  67;                                

WAUPACA        FOG       66  65  97 CALM      29.99F VSB 3/4          
6HR MIN TEMP:  65; 6HR MAX TEMP:  68;                                

WAUTOMA        FAIR      67  66  97 S5        30.00  FOG              
6HR MIN TEMP:  62; 6HR MAX TEMP:  68;                                

WISC RAPIDS    FAIR      69  67  93 SE6       29.98F                  
6HR MIN TEMP:  68; 6HR MAX TEMP:  70;                                

CAMP DOUGLAS   FAIR      69  69 100 SE7       29.96F                  
6HR MIN TEMP:  64; 6HR MAX TEMP:  69;                                

$$
 
WIZ011>013-019>022-031-037>040-048>050-211300-
NORTHEAST WISCONSIN
  
CITY           SKY/WX    TMP DP  RH WIND       PRES   REMARKS
ANTIGO         FOG       64  64 100 SE6       30.01F VSB 1/4          
6HR MIN TEMP:  64; 6HR MAX TEMP:  65;                                

SHAWANO        FOG       64  64  97 CALM      30.00F VSB 1/2          
6HR MIN TEMP:  63; 6HR MAX TEMP:  67;                                

OCONTO         FAIR      65  64  97 SE6       30.01F                  
6HR MIN TEMP:  60; 6HR MAX TEMP:  65;                                

STURGEON BAY   FAIR      66  64  93 S10       30.04F                  
6HR MIN TEMP:  62; 6HR MAX TEMP:  66; 6HR PCP:  0.03;                

GREEN BAY      FAIR      64  62  93 CALM      30.02F FOG              
6HR MIN TEMP:  63; 6HR MAX TEMP:  66;                                

MANITOWOC      FOG       64  64 100 SE6       30.04F VSB 3/4          
6HR MIN TEMP:  65; 6HR MAX TEMP:  66;                                

APPLETON       PTCLDY    66  66 100 SE6       30.00F                  
CLINTONVILLE   FOG       62  60  96 CALM      30.00S VSB<1/4          
6HR MIN TEMP:  61; 6HR MAX TEMP:  65;                                

OSHKOSH        FAIR      68  65  90 S8        30.00F FOG              
6HR MIN TEMP:  64; 6HR MAX TEMP:  68;                                

$$
 
WIZ032>034-041-042-053>061-211300-
SOUTHWEST WISCONSIN
  
CITY           SKY/WX    TMP DP  RH WIND       PRES   REMARKS
LA CROSSE      NOT AVBL                                               
SPARTA         MOCLDY    69  65  88 S8        29.94F                  
6HR MIN TEMP:  67; 6HR MAX TEMP:  72;                                

VIROQUA        CLOUDY    70  70 100 S10       29.96F                  
6HR MIN TEMP:  68; 6HR MAX TEMP:  70;                                

BOSCOBEL       MOCLDY    73  68  84 VRB5      29.97S                  
6HR MIN TEMP:  69; 6HR MAX TEMP:  75;                                

PRAIRIE DU CHI CLOUDY    73  66  80 SE6       29.95F                  
6HR MIN TEMP:  70; 6HR MAX TEMP:  74;                                

PLATTEVILLE    CLOUDY    71  71 100 S14       30.01S                  
6HR MIN TEMP:  70; 6HR MAX TEMP:  72;                                

$$

WIZ056-057-062-063-064-067-068-211300-
SOUTH CENTRAL WISCONSIN
  
CITY           SKY/WX    TMP DP  RH WIND       PRES   REMARKS
REEDSBURG      FAIR      69  69 100 SE9       29.98S                  
6HR MIN TEMP:  69; 6HR MAX TEMP:  72;                                

BARABOO/DELLS  FAIR      68  66  95 S10       29.99F                  
6HR MIN TEMP:  67; 6HR MAX TEMP:  69;                                

LONE ROCK      CLOUDY    72  68  87 SE7       29.98F                  
6HR MIN TEMP:  70; 6HR MAX TEMP:  72;                                

MINERAL POINT  CLOUDY    70  70 100 S8        30.02R                  
MADISON        MOCLDY    71  67  87 S12       30.02S                  
6HR MIN TEMP:  71; 6HR MAX TEMP:  72;                                

MIDDLETON      MOCLDY    72  66  83 S12G17    30.02F                  
6HR MIN TEMP:  71; 6HR MAX TEMP:  73;                                

WATERTOWN      FAIR      69  69 100 S9        30.03F                  
6HR MIN TEMP:  67; 6HR MAX TEMP:  69;                                

MONROE         FAIR     N/A N/A N/A S15       30.03F                  
JANESVILLE     CLOUDY    72  72 100 S12       30.05S                  
$$
 
WIZ051-052-058>065-066-070>072-211300-
SOUTHEAST WISCONSIN
  
CITY           SKY/WX    TMP DP  RH WIND       PRES   REMARKS
MILWAUKEE      MOCLDY    72  67  84 S10       30.06S                  
6HR MIN TEMP:  69; 6HR MAX TEMP:  72;                                

WAUKESHA       CLEAR     66  64  94 S5        30.08S                  
MILWAUKEE/TIMM FAIR      68  63  83 S8        30.07S                  
RACINE         FAIR      70  66  87 S6        30.09S                  
6HR MIN TEMP:  69; 6HR MAX TEMP:  72;                                

KENOSHA        FAIR      73  70  90 S7        30.08S                  
6HR MIN TEMP:  68; 6HR MAX TEMP:  73;                                

FOND DU LAC    FAIR      70  66  87 S6        30.03S                  
6HR MIN TEMP:  67; 6HR MAX TEMP:  70;                                

SHEBOYGAN      FOG       63  62  97 S3        30.04F VSB 1            
6HR MIN TEMP:  61; 6HR MAX TEMP:  65;                                

WEST BEND      FAIR      64  64 100 S6        30.05F FOG              
JUNEAU         FAIR      69  67  94 S7        30.04F                  
6HR MIN TEMP:  66; 6HR MAX TEMP:  69;                                

$$

LSZ147-162-211300-
LAKE SUPERIOR
  
STATION/POSITION TIME  TEMP    WIND        PRES    WAVE
                       AIR SEA DIR/SP/G            HT/PER
                 (UTC) (F)     (DEG/KT/KT) (MB)    (FT/S)
W MID LAKE BUOY  1150   61 54  150/ 10/ 12 1010.9F   1/ 3
DEVILS ISLAND    1200   67     170/ 11/ 14 1010.4F
SAXON HARBOR     1140   73     180/  6/ 12 1010.5F
$$
 
LMZ867-665-643>646-211300-
LAKE MICHIGAN
  
STATION/POSITION TIME  TEMP    WIND        PRES    WAVE
                       AIR SEA DIR/SP/G            HT/PER
                 (UTC) (F)     (DEG/KT/KT) (MB)    (FT/S)
CHAMBERS ISLAND  1140   66     110/